Flag for U.S.A. Weather past 2 weeks in Arlington, Texas, U.S.A.

Now
86 °F

Sunny.


Feels Like: 89 °F
Forecast: 75 / 95 °F
Wind: 8 mph from Southeast

Location: Arlington Municipal Airport

Current Time: Aug 30, 2014 at 9:40:15 PM

Latest Report: Aug 30, 2014 at 8:53 PM


Visibility: 10 mi

Pressure: 29.87 "Hg

Humidity: 55%

Dew point: 68 °F

Location of ArlingtonLocation

Historic Weather in Arlington — Graph

°F

Arlington temperature yesterday

Maximum temperature yesterday: 93 °F (at 4:53 PM)
Minimum temperature yesterday: 71 °F (at 5:53 AM)
Average temperature yesterday: 81 °F

Past Weeks' High & Low Weather Summary

 TemperatureHumidityPressure
High99 °F (Aug 16, 1:53 PM)91% (Aug 18, 5:53 AM)30.04 "Hg (Aug 18, 5:53 AM)
Low71 °F (Aug 17, 11:02 AM)25% (Aug 22, 4:53 PM)29.80 "Hg (Aug 28, 5:53 PM)
Average85 °F58%29.91 "Hg
* Reported Aug 15 7:53 PM — Aug 30 7:53 PM, Arlington, Weather by CustomWeather, © 2014

Note: Actual official high and low records may vary slightly from our data, if they occured in-between our weather recording intervals... More about our weather records

Advertising

Arlington weather history for previous 24 hours

 ConditionsComfort  
Time TempWeatherWind HumidityBarometerVisibility
7:53 PM
Aug 30
88 °FSunny.8 mph50%29.85 "Hg10 mi
6:53 PM91 °FSunny.9 mph44%29.84 "Hg10 mi
5:53 PM93 °FSunny.5 mph41%29.84 "Hg10 mi
4:53 PM93 °FPartly sunny.8 mph42%29.84 "Hg10 mi
3:53 PM92 °FSunny.7 mph44%29.86 "Hg10 mi
2:53 PM91 °FSunny.5 mph44%29.89 "Hg10 mi
1:53 PM89 °FPassing clouds.9 mph53%29.91 "Hg10 mi
12:53 PM90 °FPassing clouds.5 mph54%29.92 "Hg10 mi
11:53 AM85 °FSunny.6 mph63%29.94 "Hg10 mi
10:53 AM83 °FPassing clouds.5 mph68%29.94 "Hg10 mi
9:53 AM80 °FScattered clouds.5 mph74%29.95 "Hg10 mi
8:53 AM77 °FPartly sunny.7 mph82%29.94 "Hg10 mi
7:53 AM75 °FClear.No wind85%29.93 "Hg10 mi
6:53 AM75 °FPassing clouds.3 mph85%29.91 "Hg10 mi
5:53 AM76 °FPassing clouds.6 mph82%29.91 "Hg10 mi
4:53 AM77 °FOvercast.7 mph79%29.91 "Hg10 mi
3:53 AM77 °FPassing clouds.3 mph79%29.91 "Hg10 mi
2:53 AM77 °FClear.7 mph77%29.90 "Hg10 mi
1:53 AM78 °FClear.5 mph74%29.90 "Hg10 mi
12:53 AM79 °FClear.6 mph74%29.90 "Hg10 mi
11:53 PM
Aug 29
81 °FClear.8 mph69%29.90 "Hg10 mi
10:53 PM83 °FClear.10 mph65%29.90 "Hg10 mi
9:53 PM83 °FClear.3 mph63%29.88 "Hg10 mi
Weather by CustomWeather, © 2014

See weather overviewHow to use our weather pages